Weather History for Avoca, PA

Change the Weather History Date:

Thursday, January 24, 2013

  Actual Average Record
Temperature  
Mean Temperature 9 °F 26 °F  
Max Temperature 18 °F 33 °F 62 °F (1967)
Min Temperature 0 °F 18 °F -8 °F (1907)
Degree Days  
Heating Degree Days 56 39  
Month to date heating degree days 860 935  
Since 1 July heating degree days 2974 3313  
Cooling Degree Days 0 0  
Month to date cooling degree days 0 0  
Year to date cooling degree days 0 0  
Moisture  
Dew Point -1 °F    
Average Humidity 68    
Maximum Humidity 87    
Minimum Humidity 49    
Precipitation  
Precipitation T in 0.08 in 1.11 in (1979)
Month to date precipitation 0.74 1.81  
Year to date precipitation 0.74 1.81  
Sea Level Pressure  
Sea Level Pressure 30.29 in    
Wind  
Wind Speed 8 mph (NW)    
Max Wind Speed 22 mph    
Max Gust Speed 29 mph    
Visibility 9 miles    
Events      
T = Trace of Precipitation, MM = Missing Value Source: NWS Daily Summary

Daily Weather History Graph

Daily Weather History Graph

Search for Another Location

Airport:

Trip Planner

Search our weather history database for the weather conditions in past years. The results will help you decide how hot, cold, wet, or windy it might be!

Date:

Astronomy

Jan. 24, 2013 Rise Set
Actual Time 7:21 AM EST 5:09 PM EST
Civil Twilight 6:51 AM EST 5:39 PM EST
Nautical Twilight 6:17 AM EST 6:12 PM EST
Astronomical Twilight 5:44 AM EST 6:45 PM EST
Moon 3:09 PM EST (1/24) 5:17 AM EST (1/24)
Length of Visible Light 10h 48m
Length of Day
9h 48m
Waxing Gibbous, 94% of the Moon is Illuminated
Jan 24
Waxing Gibbous
Jan 26
Full
Feb 3
Last Quarter
Feb 10
New
Feb 17
First Quarter

Hourly Weather History & Observations

Time (EST) Temp. Windchill Dew Point Humidity Pressure Visibility Wind Dir Wind Speed Gust Speed Precip Events Conditions
12:54 AM 1.9 °F -9.2 °F -2.9 °F 80% 30.13 in 10.0 mi East 5.8 mph - N/A   Clear
1:54 AM 1.9 °F -10.6 °F -4.0 °F 76% 30.12 in 10.0 mi East 6.9 mph - N/A   Clear
2:54 AM 1.0 °F -6.7 °F -4.0 °F 79% 30.12 in 10.0 mi ESE 3.5 mph - N/A   Overcast
3:54 AM 1.9 °F -5.6 °F -4.0 °F 76% 30.12 in 10.0 mi ESE 3.5 mph - N/A   Overcast
4:54 AM 1.9 °F - -2.9 °F 80% 30.14 in 10.0 mi Calm Calm - N/A   Overcast
5:54 AM 1.9 °F - -2.9 °F 80% 30.17 in 10.0 mi Calm Calm - N/A   Overcast
6:54 AM 1.9 °F - -2.9 °F 80% 30.19 in 7.0 mi Calm Calm - N/A   Overcast
7:54 AM 1.0 °F - -2.9 °F 83% 30.22 in 7.0 mi Calm Calm - N/A   Clear
8:54 AM 5.0 °F -4.1 °F 1.0 °F 84% 30.25 in 6.0 mi SW 4.6 mph - N/A   Clear
9:54 AM 9.0 °F 2.4 °F 3.0 °F 77% 30.28 in 8.0 mi WSW 3.5 mph - N/A   Clear
10:39 AM 12.2 °F 2.9 °F 3.2 °F 67% 30.24 in 10.0 mi NW 5.8 mph - N/A   Mostly Cloudy
10:54 AM 12.0 °F 2.7 °F 3.0 °F 67% 30.30 in 10.0 mi Variable 5.8 mph - N/A   Overcast
11:46 AM 14.0 °F -0.2 °F 3.2 °F 62% 30.25 in 10.0 mi NW 12.7 mph - N/A   Scattered Clouds
11:54 AM 16.0 °F 2.9 °F 3.9 °F 59% 30.30 in 10.0 mi NNW 11.5 mph - N/A   Mostly Cloudy
12:54 PM 16.0 °F 0.6 °F 3.0 °F 57% 30.31 in 10.0 mi NW 16.1 mph - N/A   Mostly Cloudy
1:54 PM 17.1 °F 2.5 °F 3.0 °F 54% 30.32 in 8.0 mi NNW 15.0 mph 21.9 mph 0.00 in   Overcast
2:54 PM 17.1 °F 0.6 °F 1.0 °F 50% 30.34 in 10.0 mi NNW 19.6 mph 25.3 mph 0.00 in   Overcast
3:54 PM 18.0 °F 4.2 °F 1.0 °F 48% 30.36 in 10.0 mi North 13.8 mph - N/A   Scattered Clouds
4:54 PM 16.0 °F 3.6 °F -0.0 °F 49% 30.39 in 10.0 mi WNW 10.4 mph - N/A   Scattered Clouds
5:54 PM 15.1 °F 3.3 °F 1.0 °F 54% 30.42 in 10.0 mi NW 9.2 mph - N/A   Mostly Cloudy
6:54 PM 12.9 °F 2.6 °F -0.0 °F 56% 30.43 in 10.0 mi West 6.9 mph - N/A   Clear
7:54 PM 12.9 °F -0.9 °F -0.9 °F 54% 30.46 in 10.0 mi NW 11.5 mph 17.3 mph N/A   Clear
8:54 PM 12.0 °F 0.5 °F -2.0 °F 53% 30.46 in 10.0 mi North 8.1 mph - N/A   Clear
9:54 PM 10.0 °F -0.9 °F -2.0 °F 58% 30.45 in 10.0 mi NNW 6.9 mph - N/A   Clear
10:54 PM 10.0 °F -0.9 °F -2.0 °F 58% 30.47 in 10.0 mi NW 6.9 mph - N/A   Clear
11:54 PM 9.0 °F -7.3 °F -2.0 °F 61% 30.46 in 10.0 mi NNW 13.8 mph 24.2 mph N/A   Clear